Flag for Switzerland Weather past 2 weeks in Mendrisio, Ticino, Switzerland

Now
64 °F

Mild.


Feels Like: 64 °F
Forecast: 48 / 62 °F
Wind: 1 mph from Southwest

Location: Stabio

Current Time: Oct 1, 2014 at 10:39:52 PM

Latest Report: Oct 1, 2014 at 10:00 PM


Visibility: N/A

Pressure: 30.27 "Hg

Humidity: 89%

Dew point: 60 °F

Location of MendrisioLocation

Historic Weather in Mendrisio — Graph

°F

Mendrisio temperature yesterday

Maximum temperature yesterday: 69 °F (at 5:00 PM)
Minimum temperature yesterday: 54 °F (at 3:00 AM)
Average temperature yesterday: 61 °F

Past Weeks' High & Low Weather Summary

 TemperatureHumidityPressure
High77 °F (Sep 22, 3:00 PM)100% (Sep 21, 5:00 AM)30.41 "Hg (Sep 21, 5:00 AM)
Low44 °F (Sep 24, 6:00 AM)20% (Sep 22, 3:00 PM)29.75 "Hg (Sep 22, 6:00 PM)
Average61 °F83%30.13 "Hg
* Reported Sep 16 9:00 PM — Oct 1 9:00 PM, Mendrisio, Weather by CustomWeather, © 2014

Note: Actual official high and low records may vary slightly from our data, if they occured in-between our weather recording intervals... More about our weather records

Advertising

Mendrisio weather history for previous 24 hours

 ConditionsComfort  
Time TempWeatherWind HumidityBarometerVisibility
9:00 PM
Oct 1
63 °FMild.No wind94%30.25 "HgN/A
8:00 PM64 °FMild.1 mph93%30.23 "HgN/A
7:00 PM65 °FMild.1 mph88%30.21 "HgN/A
6:00 PM67 °FMild.1 mph76%30.20 "HgN/A
5:00 PM69 °FMild.2 mph72%30.19 "HgN/A
4:00 PM69 °FMild.2 mph71%30.18 "HgN/A
3:00 PM70 °FMild.1 mph73%30.19 "HgN/A
2:00 PM72 °FMild.3 mph69%30.19 "HgN/A
1:00 PM69 °FMild.3 mph73%30.22 "HgN/A
12:00 PM68 °FMild.3 mph80%30.23 "HgN/A
11:00 AM64 °FMild.1 mph87%30.24 "HgN/A
10:00 AM63 °FMild.1 mph91%30.24 "HgN/A
9:00 AM60 °FCool.No wind98%30.24 "HgN/A
8:00 AM59 °FCool.No wind99%30.25 "HgN/A
7:00 AM59 °FCool.No wind98%30.24 "HgN/A
6:00 AM59 °FCool.1 mph100%30.24 "HgN/A
5:00 AM59 °FCool.No wind99%30.25 "HgN/A
4:00 AM59 °FCool.1 mph99%30.27 "HgN/A
3:00 AM59 °FCool.No wind99%30.27 "HgN/A
2:00 AM60 °FCool.No wind98%30.28 "HgN/A
1:00 AM60 °FCool.2 mph97%30.28 "HgN/A
12:00 AM61 °FCool.No wind99%30.28 "HgN/A
11:00 PM
Sep 30
61 °FCool.No wind99%30.29 "HgN/A
10:00 PM61 °FCool.No wind98%30.30 "HgN/A
Weather by CustomWeather, © 2014

See weather overviewHow to use our weather pages